Home   Weather   40°19'N, 76°46'W   Past weeks
Flag for USA

Past Weather in 40°19'N, 76°46'W, USA — Yesterday and Last 2 Weeks

Now
41 °F

Sunny.


Feels Like: 32 °F
Forecast: 49 / 33 °F
Wind: 20 mph from Northwest

Location: Capital City Airport

Current Time: Mar 23, 2019 at 11:51:13 am

Latest Report: Mar 23, 2019 at 10:56 am


Visibility: 10 mi

Pressure: 30.06 "Hg

Humidity: 29%

Dew Point: 11 °F

Location of 40°19'N, 76°46'WLocation

Past Weather in 40°19'N, 76°46'W — Graph

°F

40°19'N, 76°46'W Temperature Yesterday

Maximum temperature yesterday: 48 °F (at 1:56 pm)
Minimum temperature yesterday: 37 °F (at 11:56 pm)
Average temperature yesterday: 43 °F

High & Low Weather Summary for the Past Weeks

 TemperatureHumidityPressure
High76 °F (Mar 15, 3:56 pm)96% (Mar 10, 4:56 am)30.48 "Hg (Mar 10, 4:56 am)
Low25 °F (Mar 13, 6:56 am)18% (Mar 19, 2:56 pm)29.53 "Hg (Mar 22, 5:56 am)
Average42 °F58%30.11 "Hg
* Reported Mar 8 8:56 am — Mar 23 9:56 am, 40°19'N, 76°46'W. Weather by CustomWeather, © 2019

Note: Actual official high and low records may vary slightly from our data, if they occured in-between our weather recording intervals... More about our weather records

Advertising

40°19'N, 76°46'W Weather History for the Previous 24 Hours

Scroll right to see more
 ConditionsComfort  
Time TempWeatherWind HumidityBarometerVisibility
9:56 am
Sat, Mar 23
39 °FSunny.18 mph39%30.02 "Hg10 mi
8:56 am36 °FSunny.21 mph50%30.00 "Hg10 mi
7:56 am34 °FSunny.18 mph54%29.98 "Hg10 mi
6:56 am34 °FClear.15 mph56%29.94 "Hg10 mi
5:56 am34 °FPassing clouds.22 mph56%29.91 "Hg10 mi
4:56 am34 °FPassing clouds.16 mph54%29.89 "Hg10 mi
3:56 am34 °FPartly cloudy.15 mph54%29.86 "Hg10 mi
2:56 am34 °FPassing clouds.24 mph54%29.84 "Hg10 mi
1:56 am35 °FOvercast.18 mph52%29.83 "Hg10 mi
12:56 am35 °FPassing clouds.22 mph50%29.81 "Hg10 mi
11:56 pm
Fri, Mar 22
37 °FPassing clouds.20 mph48%29.80 "Hg10 mi
10:56 pm39 °FPassing clouds.18 mph45%29.77 "Hg10 mi
9:56 pm40 °FOvercast.18 mph49%29.76 "Hg10 mi
8:56 pm40 °FOvercast.20 mph53%29.72 "Hg10 mi
7:56 pm41 °FPassing clouds.20 mph51%29.69 "Hg10 mi
6:56 pm41 °FPassing clouds.20 mph62%29.65 "Hg10 mi
5:56 pm46 °FPartly sunny.20 mph40%29.59 "Hg10 mi
4:56 pm41 °FLight rain. Broken clouds.18 mph70%29.58 "Hg7 mi
3:56 pm48 °FBroken clouds.15 mph54%29.56 "Hg10 mi
2:56 pm46 °FLight rain. More clouds than sun.20 mph56%29.56 "Hg10 mi
1:56 pm48 °FBroken clouds.15 mph48%29.57 "Hg10 mi
12:56 pm47 °FMostly cloudy.13 mph54%29.59 "Hg10 mi
11:56 am45 °FMostly cloudy.15 mph51%29.60 "Hg10 mi
Weather by CustomWeather, © 2019

See weather overview